Regional Weather Roundup
Issued by NWS

Home | Current Version | Previous Version | Graphics & Text | Print | Product List | Glossary On
Versions: 1 2 3 4 5 6 7 8 9 10 11 12 13 14 15 16 17 18 19 20 21 22 23 24 25 26 27 28 29 30 31 32 33 34 35 36 37 38 39 40 41 42 43 44 45 46 47 48 49 50
000
ASUS43 KMKX 270100
RWRWI

WISCONSIN REGIONAL WEATHER ROUNDUP
NATIONAL WEATHER SERVICE MILWAUKEE/SULLIVAN WI
700 PM CST WED NOV 26 2014

NOTE: "FAIR" INDICATES FEW OR NO CLOUDS BELOW 12,000 FEET WITH NO
SIGNIFICANT WEATHER AND/OR OBSTRUCTIONS TO VISIBILITY.

WIZ001-002-006>008-014>016-023>028-270200-
NORTHWEST WISCONSIN

CITY           SKY/WX    TMP DP  RH WIND       PRES   REMARKS
SUPERIOR ARPT  PTCLDY    14   4  67 N10       30.35R WCI   1
ASHLAND        CLOUDY    19  13  77 NW9       30.29R WCI   8
HAYWARD        FLURRIES  18  12  77 NW3       30.25S
SIREN          CLOUDY    20  10  65 N8        30.29R WCI  10
CUMBERLAND     CLOUDY    21  14  73 N12       30.23S WCI   9
RICE LAKE      CLOUDY    23  16  76 N8        30.25S WCI  14
CHETEK         CLOUDY    22  17  79 N5        30.24R WCI  16
LADYSMITH      MOCLDY    23  19  86 NW9       30.23R WCI  13
EAU CLAIRE     CLOUDY    23  16  74 N5        30.23R WCI  17
MENOMONIE      PTCLDY    23  17  76 NW6       30.25R WCI  16
NEW RICHMOND   CLOUDY    22  16  79 N7        30.27R WCI  13
OSCEOLA        CLOUDY    23  14  69 N9        30.31R WCI  13
$$

WIZ003>005-009-010-017-018-270200-
NORTH CENTRAL WISCONSIN

CITY           SKY/WX    TMP DP  RH WIND       PRES   REMARKS
MANITOWISH WTR FLURRIES  19  17  90 NW9       30.15S WCI   9
ARBOR VITAE    LGT SNOW  22  19  89 NW8       30.15R WCI  13
WOODRUFF       LGT SNOW  22  19  89 NW8       30.15R WCI  13
RHINELANDER    CLOUDY    20  17  88 NW6       30.14S WCI  12
EAGLE RIVER    CLOUDY    21  17  86 N3        30.13S
LAND O LAKES   CLOUDY    21  19  91 N6        30.15R WCI  14
PHILLIPS       FLURRIES  20  16  84 N5        30.18R WCI  14
TOMAHAWK       CLOUDY    22  19  89 CALM      30.16S
MEDFORD        FLURRIES  21  19  89 NW7       30.17R WCI  13
MERRILL        CLOUDY    23  20  89 NW5       30.16R WCI  17
$$

WIZ029-030-035-036-043>047-270200-
CENTRAL WISCONSIN

CITY           SKY/WX    TMP DP  RH WIND       PRES   REMARKS
WAUSAU         LGT SNOW  23  20  88 NW7       30.15S FOG     WCI  15
MOSINEE        LGT SNOW  23  23 100 NW6       30.17R WCI  16
MARSHFIELD     LGT SNOW  23  20  88 NW9       30.17R FOG     WCI  13
STEVENS POINT  MIX PCPN  22  19  89 CALM      30.17S
WAUPACA        CLOUDY    19  16  89 CALM      30.19R FOG
WAUTOMA        NOT AVBL
WISC RAPIDS    LGT SNOW  23  18  81 NW5       30.20R WCI  17
CAMP DOUGLAS   NOT AVBL
$$

WIZ011>013-019>022-031-037>040-048>050-270200-
NORTHEAST WISCONSIN

CITY           SKY/WX    TMP DP  RH WIND       PRES   REMARKS
ANTIGO         LGT SNOW  21  19  93 NW6       30.13S WCI  13
SHAWANO        CLOUDY    23  19  85 CALM      30.17S
OCONTO         CLOUDY    18  17  95 CALM      30.17S
STURGEON BAY   CLOUDY    23  16  74 NW7       30.16S WCI  15
GREEN BAY      PTCLDY    16  13  88 CALM      30.17F FOG
MANITOWOC      NOT AVBL
APPLETON       MOCLDY    16  16 100 NW6       30.17  WCI   7
CLINTONVILLE   CLOUDY    18  18 100 W3        30.17S FOG
OSHKOSH        MOCLDY    20  16  84 MISG      30.18R FOG
$$

WIZ032>034-041-042-053>061-270200-
SOUTHWEST WISCONSIN

CITY           SKY/WX    TMP DP  RH WIND       PRES   REMARKS
LA CROSSE      LGT SNOW  25  22  88 N7        30.24R FOG     WCI  17
SPARTA         LGT SNOW  25  22  91 NW3       30.23R
VIROQUA        CLOUDY    24  22  93 NW7       30.18R WCI  16
BOSCOBEL       CLOUDY    20  18  92 CALM      30.23R FOG
PRAIRIE DU CHI CLOUDY    25  20  83 CALM      30.22R
PLATTEVILLE    MOCLDY    22  20  91 CALM      30.19S
$$

WIZ056-057-062-063-064-067-068-270200-
SOUTH CENTRAL WISCONSIN

CITY           SKY/WX    TMP DP  RH WIND       PRES   REMARKS
REEDSBURG      PTCLDY    17  16  96 CALM      30.19S FOG
BARABOO/DELLS  FOG       15  13  92 CALM      30.19R VSB 1/2
LONE ROCK      NOT AVBL
MINERAL POINT  MOCLDY    23  19  86 NW7       30.17R FOG     WCI  15
MADISON        CLOUDY    17  14  88 NW3       30.19R FOG
MIDDLETON      MOCLDY    19  16  91 NW6       30.18R WCI  10
WATERTOWN      MOCLDY    22  19  91 NW7       30.16S WCI  13
MONROE         CLOUDY    23  21  93 N10       30.15S FOG     WCI  12
JANESVILLE     PTCLDY    21  19  93 N9        30.16R FOG     WCI  11
$$

WIZ051-052-058>065-066-070>072-270200-
SOUTHEAST WISCONSIN

CITY           SKY/WX    TMP DP  RH WIND       PRES   REMARKS
MILWAUKEE      CLOUDY    29  20  69 NW12      30.15R WCI  19
WAUKESHA       MOCLDY    21  19  93 NW7       30.16S FOG     WCI  13
MILWAUKEE/TIMM CLOUDY    27  19  74 MISG      30.16S
RACINE         CLOUDY    29  22  75 NW7       30.15S WCI  22
BURLINGTON     CLOUDY    22  19  91 NW10      30.15S WCI  11
KENOSHA        CLOUDY    28  23  81 NW9       30.13S WCI  19
FOND DU LAC    CLOUDY    20  16  84 NW7       30.18R WCI  11
SHEBOYGAN      PTCLDY    19  16  88 NW7       30.17R WCI  10
WEST BEND      MOCLDY    23  19  86 NW3       30.16S
JUNEAU         MOCLDY    19  17  92 CALM      30.18S FOG
$$

LSZ147-162-270200-
LAKE SUPERIOR

STATION/POSITION TIME  TEMP    WIND        PRES    WAVE
                       AIR SEA DIR/SP/G            HT/PER
                 (UTC) (F)     (DEG/KT/KT) (MB)    (FT/S)
DEVILS ISLAND    0000   20     350/ 17/ 19 1026.9R
PORT WING        0000   21     330/ 13/ 18 1026.1
SAXON HARBOR     0000   25     350/ 10/ 14 1024.4R
$$

LMZ867-665-643>646-270200-
LAKE MICHIGAN

STATION/POSITION TIME  TEMP    WIND        PRES    WAVE
                       AIR SEA DIR/SP/G            HT/PER
                 (UTC) (F)     (DEG/KT/KT) (MB)    (FT/S)
CHAMBERS ISLAND  0000   25     290/  3/  7 1021.7S
N MID LAKE BUOY  2350   29 42  310/  8/ 12 1021.8F   1
NORTHPORT PIER   0001   26     290/  5/  7 1021.0F
SISTER BAY       0013          340/  6/  7   N/A
ALGOMA LAKESHORE 2358             CALM       N/A
KEWAUNEE LAKESHO 0000   21     310/  2/  4 1020.6F
SHEBOYGAN LAKESH 0000   24 37  340/  5/  6 1022.6F
PORT WASHINGTON  0000   26     340/  8/ 12 1022.4R
MILWAUKEE LAKESH 0000   30     330/  8/ 10   N/A
S MID LAKE BUOY  2350   32 42  190/  2/  4 1021.1R   1/ 3
KENOSHA   LAKESH 0000   30     330/  9/ 12 1020.3S
$$

TC  - TEMPERATURE IN CELSIUS
VSB - VISIBILITY IN STATUTE MILES
WCI - WIND CHILL INDEX
HX  - HEAT INDEX




USA.gov is the U.S. government's official web portal to all federal, state and local government web resources and services.